QPF
0.00 0.00 0.00 0.01 0.01 0.01 0.01 0.01 0.01 0.01 0.01 0.02 0.02 0.03 0.02 0.01 0.01 0.01 0.01 0.02 0.02 0.02 0.02 0.02 0.02 0.02 0.02 0.01 0.01 0.01 0.01 0.01 0.01 0.01 0.01 0.02 0.02 0.02 0.02 0.01 0.02 0.03 0.03
0.00 0.01 0.00 0.01 0.01 0.01 0.01 0.02 0.01 0.02 0.02 0.02 0.03 0.03 0.03 0.02 0.02 0.02 0.01 0.02 0.02 0.02 0.02 0.01 0.01 0.01 0.01 0.01 0.01 0.01 0.01 0.01 0.01 0.01 0.01 0.02 0.02 0.02 0.01 0.01 0.01 0.01 0.01
0.01 0.00 0.00 0.01 0.02 0.02 0.02 0.02 0.03 0.02 0.02 0.02 0.02 0.03 0.02 0.02 0.01 0.01 0.01 0.02 0.02 0.02 0.02 0.01 0.01 0.01 0.01 0.01 0.01 0.00 0.00 0.00 0.01 0.01 0.01 0.01 0.02 0.01 0.01 0.01 0.01 0.01 0.01
0.01 0.01 0.01 0.01 0.02 0.02 0.02 0.02 0.02 0.02 0.02 0.02 0.02 0.03 0.02 0.01 0.01 0.02 0.02 0.02 0.02 0.02 0.01 0.01 0.01 0.01 0.00 0.00 0.00 0.00 0.00 0.00 0.00 0.00 0.01 0.02 0.01 0.02 0.03 0.01 0.00 0.00 0.00
0.01 0.02 0.01 0.01 0.01 0.02 0.02 0.03 0.02 0.02 0.02 0.02 0.02 0.03 0.03 0.02 0.02 0.02 0.01 0.01 0.01 0.01 0.01 0.01 0.01 0.00 0.00 0.00 0.00 0.00 0.00 0.00 0.00 0.01 0.01 0.01 0.02 0.02 0.04 0.02 0.00 0.01 0.00
0.01 0.02 0.01 0.01 0.01 0.02 0.03 0.03 0.02 0.02 0.02 0.02 0.03 0.03 0.04 0.04 0.03 0.02 0.01 0.01 0.01 0.01 0.01 0.01 0.01 0.01 0.00 0.00 0.00 0.00 0.00 0.00 0.01 0.01 0.02 0.02 0.02 0.02 0.03 0.02 0.01 0.01 0.01
0.01 0.01 0.01 0.01 0.01 0.02 0.02 0.02 0.01 0.02 0.02 0.02 0.02 0.03 0.03 0.03 0.02 0.02 0.01 0.01 0.01 0.00 0.00 0.00 0.00 0.00 0.00 0.00 0.00 0.00 0.00 0.00 0.00 0.01 0.01 0.02 0.02 0.02 0.02 0.02 0.02 0.01 0.01
0.01 0.01 0.01 0.01 0.01 0.02 0.02 0.02 0.02 0.01 0.02 0.02 0.02 0.03 0.03 0.02 0.02 0.02 0.01 0.01 0.01 0.00 0.00 0.00 0.00 0.00 0.00 0.00 0.00 0.00 0.00 0.00 0.00 0.00 0.01 0.02 0.01 0.02 0.02 0.01 0.01 0.01 0.01
0.01 0.01 0.01 0.01 0.01 0.02 0.02 0.03 0.02 0.02 0.02 0.03 0.02 0.02 0.02 0.02 0.02 0.03 0.02 0.01 0.01 0.01 0.01 0.00 0.00 0.00 0.00 0.00 0.00 0.00 0.00 0.00 0.00 0.01 0.01 0.01 0.01 0.01 0.01 0.00 0.00 0.00 0.00
0.01 0.01 0.02 0.02 0.01 0.01 0.02 0.03 0.02 0.02 0.01 0.02 0.02 0.03 0.03 0.02 0.02 0.03 0.03 0.02 0.01 0.01 0.01 0.01 0.00 0.00 0.00 0.00 0.00 0.00 0.00 0.00 0.00 0.00 0.00 0.00 0.01 0.01 0.01 0.00 0.00 0.00 0.00
0.01 0.02 0.02 0.03 0.03 0.02 0.02 0.01 0.02 0.01 0.01 0.01 0.01 0.01 0.02 0.03 0.02 0.02 0.02 0.01 0.02 0.01 0.01 0.01 0.01 0.00 0.00 0.00 0.00 0.00 0.00 0.00 0.00 0.00 0.00 0.01 0.01 0.01 0.00 0.00 0.01 0.01 0.01
0.01 0.02 0.02 0.03 0.03 0.02 0.02 0.02 0.02 0.02 0.01 0.01 0.01 0.02 0.02 0.03 0.02 0.02 0.03 0.02 0.02 0.02 0.02 0.01 0.01 0.00 0.00 0.00 0.00 0.00 0.00 0.01 0.01 0.01 0.00 0.00 0.01 0.01 0.00 0.00 0.01 0.01 0.02
0.01 0.02 0.02 0.03 0.03 0.03 0.03 0.03 0.03 0.02 0.02 0.02 0.03 0.03 0.02 0.02 0.03 0.02 0.03 0.03 0.02 0.02 0.03 0.02 0.01 0.01 0.01 0.01 0.01 0.01 0.01 0.01 0.01 0.01 0.00 0.00 0.01 0.01 0.01 0.01 0.01 0.02 0.02
0.02 0.03 0.03 0.03 0.04 0.05 0.04 0.03 0.02 0.02 0.02 0.03 0.05 0.05 0.04 0.04 0.03 0.03 0.03 0.03 0.02 0.02 0.02 0.02 0.02 0.01 0.00 0.00 0.01 0.01 0.00 0.00 0.00 0.01 0.01 0.00 0.00 0.01 0.01 0.01 0.01 0.02 0.02
0.03 0.03 0.03 0.03 0.04 0.04 0.03 0.03 0.02 0.03 0.03 0.03 0.04 0.06 0.05 0.05 0.04 0.02 0.02 0.02 0.02 0.02 0.02 0.02 0.02 0.03 0.01 0.00 0.00 0.01 0.01 0.01 0.00 0.01 0.00 0.00 0.00 0.00 0.01 0.01 0.01 0.01 0.01
0.03 0.03 0.03 0.03 0.03 0.03 0.03 0.03 0.03 0.02 0.03 0.03 0.04 0.06 0.06 0.06 0.05 0.03 0.03 0.03 0.02 0.02 0.02 0.01 0.02 0.03 0.03 0.02 0.01 0.00 0.00 0.00 0.00 0.00 0.00 0.00 0.00 0.00 0.00 0.00 0.01 0.00 0.01
0.02 0.02 0.03 0.03 0.03 0.03 0.02 0.02 0.02 0.02 0.02 0.03 0.02 0.04 0.06 0.07 0.06 0.04 0.03 0.02 0.01 0.01 0.00 0.01 0.01 0.02 0.02 0.02 0.02 0.01 0.00 0.00 0.00 0.00 0.00 0.00 0.00 0.00 0.00 0.00 0.00 0.00 0.00
0.03 0.02 0.03 0.03 0.02 0.02 0.02 0.02 0.02 0.01 0.01 0.01 0.01 0.02 0.03 0.04 0.04 0.03 0.02 0.01 0.00 0.00 0.00 0.00 0.00 0.01 0.01 0.01 0.01 0.02 0.02 0.01 0.00 0.00 0.00 0.00 0.00 0.00 0.00 0.00 0.00 0.00 0.00
0.03 0.03 0.03 0.03 0.02 0.02 0.02 0.02 0.02 0.01 0.01 0.01 0.01 0.01 0.02 0.02 0.01 0.01 0.01 0.01 0.00 0.00 0.00 0.00 0.00 0.00 0.00 0.00 0.00 0.01 0.01 0.01 0.01 0.01 0.00 0.00 0.00 0.00 0.00 0.00 0.00 0.00 0.00
0.03 0.04 0.03 0.03 0.02 0.02 0.02 0.01 0.01 0.00 0.00 0.00 0.00 0.00 0.01 0.01 0.01 0.00 0.00 0.00 0.00 0.00 0.00 0.00 0.00 0.00 0.00 0.00 0.00 0.00 0.00 0.00 0.00 0.00 0.00 0.00 0.00 0.00 0.00 0.00 0.00 0.00 0.00
0.04 0.04 0.04 0.03 0.02 0.01 0.01 0.01 0.01 0.00 0.00 0.00 0.00 0.00 0.00 0.01 0.01 0.00 0.00 0.00 0.00 0.00 0.00 0.00 0.00 0.00 0.00 0.00 0.00 0.00 0.00 0.00 0.00 0.00 0.00 0.00 0.00 0.00 0.00 0.00 0.00 0.00 0.00
0.03 0.03 0.02 0.02 0.02 0.02 0.01 0.01 0.01 0.01 0.00 0.00 0.00 0.00 0.01 0.00 0.00 0.00 0.00 0.00 0.00 0.00 0.00 0.00 0.00 0.00 0.00 0.00 0.00 0.00 0.00 0.00 0.00 0.00 0.00 0.00 0.00 0.00 0.00 0.00 0.00 0.00 0.00
0.03 0.02 0.01 0.01 0.02 0.02 0.01 0.01 0.00 0.00 0.00 0.00 0.00 0.00 0.00 0.01 0.00 0.00 0.00 0.00 0.00 0.00 0.00 0.00 0.00 0.00 0.00 0.00 0.00 0.00 0.00 0.00 0.00 0.00 0.00 0.00 0.00 0.00 0.00 0.00 0.00 0.00 0.00
0.02 0.02 0.02 0.02 0.02 0.02 0.01 0.01 0.01 0.00 0.00 0.00 0.00 0.00 0.00 0.00 0.01 0.00 0.00 0.00 0.00 0.00 0.00 0.00 0.00 0.00 0.00 0.00 0.00 0.00 0.00 0.00 0.00 0.00 0.00 0.00 0.00 0.00 0.00 0.00 0.00 0.00 0.00
0.02 0.02 0.02 0.02 0.02 0.02 0.02 0.02 0.01 0.00 0.00 0.00 0.00 0.00 0.00 0.00 0.00 0.00 0.00 0.00 0.00 0.00 0.00 0.00 0.00 0.00 0.00 0.00 0.00 0.00 0.00 0.00 0.00 0.00 0.00 0.00 0.00 0.00 0.00 0.00 0.00 0.00 0.00
0.02 0.02 0.02 0.03 0.03 0.02 0.02 0.02 0.01 0.01 0.00 0.00 0.00 0.00 0.00 0.00 0.00 0.00 0.00 0.00 0.00 0.00 0.00 0.00 0.00 0.00 0.00 0.00 0.00 0.00 0.00 0.00 0.00 0.00 0.00 0.00 0.00 0.00 0.00 0.00 0.00 0.00 0.00
MSLP
1011.40 1011.51 1011.71 1012.01 1012.40 1012.86 1013.33 1013.77 1014.15 1014.43 1014.65 1014.80 1014.95 1015.10 1015.29 1015.52 1015.75 1015.98 1016.17 1016.30 1016.36 1016.37 1016.34 1016.31 1016.30 1016.32 1016.39 1016.48 1016.59 1016.69 1016.78 1016.85 1016.91 1016.95 1017.00 1017.06 1017.12 1017.18 1017.22 1017.25 1017.24 1017.21 1017.17
1011.20 1011.40 1011.69 1012.10 1012.59 1013.12 1013.64 1014.11 1014.49 1014.78 1014.98 1015.14 1015.30 1015.47 1015.69 1015.94 1016.20 1016.45 1016.64 1016.78 1016.84 1016.86 1016.84 1016.82 1016.82 1016.86 1016.92 1017.01 1017.11 1017.20 1017.28 1017.35 1017.42 1017.49 1017.57 1017.66 1017.75 1017.83 1017.89 1017.91 1017.90 1017.85 1017.79
1011.00 1011.29 1011.68 1012.19 1012.76 1013.37 1013.94 1014.43 1014.83 1015.12 1015.33 1015.50 1015.67 1015.86 1016.09 1016.35 1016.62 1016.87 1017.07 1017.20 1017.28 1017.30 1017.30 1017.31 1017.33 1017.37 1017.44 1017.53 1017.61 1017.70 1017.77 1017.84 1017.92 1018.02 1018.13 1018.25 1018.37 1018.48 1018.54 1018.57 1018.55 1018.48 1018.40
1010.85 1011.22 1011.71 1012.30 1012.95 1013.61 1014.22 1014.74 1015.15 1015.45 1015.67 1015.85 1016.03 1016.23 1016.47 1016.72 1016.99 1017.23 1017.42 1017.56 1017.65 1017.69 1017.73 1017.76 1017.81 1017.88 1017.95 1018.04 1018.11 1018.19 1018.26 1018.33 1018.43 1018.54 1018.68 1018.83 1018.97 1019.08 1019.15 1019.17 1019.13 1019.06 1018.97
1010.79 1011.24 1011.81 1012.47 1013.18 1013.87 1014.50 1015.03 1015.44 1015.74 1015.97 1016.16 1016.34 1016.55 1016.79 1017.04 1017.30 1017.53 1017.72 1017.87 1017.98 1018.06 1018.13 1018.20 1018.29 1018.38 1018.47 1018.56 1018.63 1018.70 1018.77 1018.85 1018.95 1019.08 1019.24 1019.39 1019.53 1019.64 1019.69 1019.69 1019.64 1019.56 1019.46
1010.86 1011.38 1012.01 1012.71 1013.44 1014.15 1014.78 1015.30 1015.70 1016.00 1016.23 1016.43 1016.62 1016.83 1017.07 1017.32 1017.56 1017.79 1017.99 1018.16 1018.30 1018.43 1018.55 1018.67 1018.80 1018.92 1019.03 1019.12 1019.19 1019.26 1019.32 1019.41 1019.52 1019.65 1019.80 1019.95 1020.07 1020.15 1020.17 1020.14 1020.07 1019.97 1019.87
1011.07 1011.64 1012.30 1013.03 1013.76 1014.45 1015.06 1015.55 1015.94 1016.23 1016.46 1016.67 1016.87 1017.09 1017.33 1017.59 1017.84 1018.08 1018.29 1018.49 1018.67 1018.84 1019.01 1019.18 1019.35 1019.50 1019.62 1019.72 1019.79 1019.85 1019.92 1020.00 1020.11 1020.24 1020.38 1020.51 1020.59 1020.63 1020.60 1020.53 1020.42 1020.31 1020.20
1011.39 1011.99 1012.67 1013.39 1014.10 1014.76 1015.33 1015.79 1016.16 1016.45 1016.69 1016.91 1017.13 1017.37 1017.63 1017.90 1018.16 1018.42 1018.66 1018.88 1019.11 1019.33 1019.55 1019.76 1019.95 1020.12 1020.25 1020.35 1020.42 1020.48 1020.54 1020.63 1020.73 1020.85 1020.97 1021.06 1021.11 1021.09 1021.01 1020.89 1020.75 1020.61 1020.50
1011.75 1012.36 1013.04 1013.74 1014.42 1015.03 1015.57 1016.01 1016.36 1016.66 1016.91 1017.17 1017.42 1017.70 1017.98 1018.27 1018.56 1018.84 1019.11 1019.37 1019.63 1019.88 1020.13 1020.37 1020.58 1020.75 1020.88 1020.97 1021.04 1021.10 1021.16 1021.24 1021.34 1021.45 1021.55 1021.61 1021.62 1021.55 1021.43 1021.27 1021.09 1020.93 1020.81
1012.08 1012.69 1013.35 1014.02 1014.66 1015.24 1015.74 1016.16 1016.52 1016.84 1017.13 1017.43 1017.74 1018.05 1018.38 1018.70 1019.02 1019.32 1019.62 1019.91 1020.19 1020.47 1020.73 1020.98 1021.19 1021.35 1021.47 1021.56 1021.62 1021.67 1021.74 1021.82 1021.92 1022.03 1022.11 1022.15 1022.12 1022.03 1021.87 1021.68 1021.48 1021.30 1021.16
1012.30 1012.91 1013.55 1014.19 1014.79 1015.34 1015.82 1016.24 1016.62 1016.97 1017.32 1017.67 1018.04 1018.42 1018.79 1019.15 1019.50 1019.83 1020.14 1020.44 1020.74 1021.02 1021.29 1021.53 1021.73 1021.88 1021.99 1022.07 1022.13 1022.18 1022.25 1022.35 1022.45 1022.56 1022.64 1022.66 1022.63 1022.52 1022.35 1022.14 1021.93 1021.73 1021.58
1012.36 1012.96 1013.59 1014.20 1014.78 1015.31 1015.78 1016.22 1016.63 1017.03 1017.44 1017.87 1018.30 1018.73 1019.15 1019.55 1019.93 1020.28 1020.60 1020.91 1021.21 1021.49 1021.75 1021.97 1022.16 1022.31 1022.41 1022.49 1022.55 1022.62 1022.71 1022.82 1022.93 1023.05 1023.13 1023.16 1023.12 1023.01 1022.84 1022.64 1022.43 1022.23 1022.06
1012.26 1012.87 1013.48 1014.08 1014.64 1015.16 1015.64 1016.10 1016.55 1017.01 1017.48 1017.97 1018.46 1018.95 1019.41 1019.85 1020.25 1020.62 1020.95 1021.26 1021.55 1021.83 1022.07 1022.29 1022.47 1022.62 1022.73 1022.82 1022.91 1023.01 1023.12 1023.25 1023.38 1023.50 1023.59 1023.62 1023.59 1023.49 1023.35 1023.16 1022.96 1022.77 1022.59
1012.02 1012.64 1013.26 1013.85 1014.40 1014.93 1015.42 1015.91 1016.40 1016.91 1017.43 1017.97 1018.51 1019.03 1019.53 1020.00 1020.42 1020.80 1021.15 1021.46 1021.76 1022.02 1022.27 1022.48 1022.67 1022.83 1022.97 1023.10 1023.23 1023.36 1023.51 1023.67 1023.82 1023.95 1024.03 1024.07 1024.04 1023.96 1023.83 1023.67 1023.49 1023.31 1023.12
1011.70 1012.34 1012.96 1013.56 1014.13 1014.66 1015.18 1015.69 1016.21 1016.75 1017.31 1017.87 1018.44 1018.99 1019.51 1019.99 1020.43 1020.83 1021.20 1021.52 1021.82 1022.10 1022.35 1022.58 1022.79 1022.98 1023.16 1023.35 1023.53 1023.72 1023.92 1024.10 1024.27 1024.39 1024.47 1024.50 1024.47 1024.40 1024.28 1024.14 1023.98 1023.81 1023.61
1011.33 1012.00 1012.65 1013.28 1013.86 1014.42 1014.96 1015.49 1016.03 1016.58 1017.15 1017.72 1018.28 1018.83 1019.36 1019.86 1020.32 1020.74 1021.13 1021.48 1021.80 1022.10 1022.37 1022.62 1022.87 1023.11 1023.35 1023.60 1023.85 1024.10 1024.34 1024.55 1024.73 1024.85 1024.91 1024.92 1024.88 1024.79 1024.68 1024.55 1024.40 1024.23 1024.04
1010.96 1011.66 1012.35 1013.01 1013.63 1014.22 1014.79 1015.35 1015.90 1016.44 1016.99 1017.54 1018.09 1018.62 1019.15 1019.65 1020.13 1020.58 1021.00 1021.39 1021.74 1022.07 1022.38 1022.67 1022.95 1023.24 1023.54 1023.85 1024.17 1024.48 1024.76 1025.01 1025.19 1025.30 1025.34 1025.32 1025.25 1025.15 1025.02 1024.89 1024.75 1024.58 1024.38
1010.55 1011.29 1012.02 1012.73 1013.41 1014.06 1014.67 1015.25 1015.81 1016.35 1016.87 1017.38 1017.89 1018.40 1018.91 1019.41 1019.91 1020.40 1020.86 1021.29 1021.69 1022.06 1022.40 1022.72 1023.04 1023.38 1023.73 1024.09 1024.47 1024.83 1025.15 1025.42 1025.61 1025.71 1025.73 1025.68 1025.58 1025.45 1025.31 1025.17 1025.03 1024.86 1024.66
1010.08 1010.85 1011.64 1012.41 1013.16 1013.87 1014.54 1015.17 1015.74 1016.27 1016.77 1017.24 1017.71 1018.18 1018.67 1019.17 1019.69 1020.22 1020.73 1021.21 1021.66 1022.07 1022.44 1022.79 1023.14 1023.50 1023.88 1024.28 1024.69 1025.09 1025.44 1025.73 1025.93 1026.03 1026.04 1025.97 1025.86 1025.71 1025.56 1025.41 1025.26 1025.08 1024.87
1009.49 1010.29 1011.12 1011.97 1012.80 1013.60 1014.35 1015.03 1015.64 1016.18 1016.65 1017.09 1017.52 1017.95 1018.42 1018.93 1019.47 1020.03 1020.59 1021.13 1021.63 1022.07 1022.47 1022.84 1023.20 1023.57 1023.96 1024.37 1024.80 1025.21 1025.59 1025.89 1026.11 1026.22 1026.24 1026.18 1026.06 1025.91 1025.76 1025.61 1025.45 1025.28 1025.06
1008.74 1009.55 1010.43 1011.34 1012.27 1013.16 1014.01 1014.76 1015.43 1015.99 1016.46 1016.88 1017.28 1017.69 1018.14 1018.64 1019.20 1019.80 1020.41 1021.00 1021.55 1022.03 1022.46 1022.84 1023.20 1023.56 1023.93 1024.33 1024.75 1025.17 1025.55 1025.88 1026.11 1026.25 1026.30 1026.26 1026.17 1026.05 1025.91 1025.78 1025.63 1025.46 1025.25
1007.83 1008.64 1009.55 1010.52 1011.53 1012.52 1013.46 1014.31 1015.04 1015.64 1016.14 1016.55 1016.94 1017.33 1017.77 1018.27 1018.85 1019.48 1020.14 1020.78 1021.37 1021.90 1022.35 1022.74 1023.10 1023.43 1023.78 1024.16 1024.55 1024.95 1025.34 1025.67 1025.94 1026.11 1026.21 1026.22 1026.19 1026.11 1026.02 1025.91 1025.79 1025.64 1025.43
1006.84 1007.62 1008.53 1009.53 1010.59 1011.66 1012.69 1013.63 1014.43 1015.10 1015.64 1016.07 1016.46 1016.84 1017.28 1017.79 1018.38 1019.04 1019.73 1020.42 1021.06 1021.63 1022.12 1022.53 1022.88 1023.20 1023.52 1023.86 1024.23 1024.60 1024.98 1025.32 1025.61 1025.83 1025.98 1026.07 1026.11 1026.10 1026.07 1026.01 1025.93 1025.79 1025.60
1005.87 1006.60 1007.46 1008.45 1009.53 1010.64 1011.72 1012.73 1013.62 1014.35 1014.94 1015.41 1015.82 1016.22 1016.65 1017.17 1017.77 1018.45 1019.18 1019.91 1020.60 1021.22 1021.75 1022.19 1022.56 1022.88 1023.18 1023.50 1023.83 1024.18 1024.53 1024.88 1025.19 1025.46 1025.67 1025.83 1025.95 1026.03 1026.07 1026.07 1026.02 1025.92 1025.74
1005.08 1005.71 1006.49 1007.41 1008.44 1009.53 1010.64 1011.69 1012.63 1013.43 1014.08 1014.60 1015.05 1015.47 1015.92 1016.44 1017.05 1017.74 1018.49 1019.26 1020.00 1020.67 1021.26 1021.75 1022.15 1022.50 1022.80 1023.11 1023.42 1023.74 1024.08 1024.42 1024.75 1025.06 1025.33 1025.56 1025.75 1025.90 1026.01 1026.07 1026.07 1026.00 1025.84
1004.59 1005.09 1005.72 1006.51 1007.43 1008.45 1009.52 1010.56 1011.53 1012.39 1013.10 1013.69 1014.18 1014.64 1015.11 1015.64 1016.25 1016.95 1017.72 1018.52 1019.30 1020.03 1020.68 1021.23 1021.69 1022.08 1022.41 1022.72 1023.03 1023.35 1023.67 1024.01 1024.35 1024.68 1025.00 1025.29 1025.54 1025.76 1025.93 1026.04 1026.08 1026.03 1025.88
Thickness
5763 5762 5760 5758 5757 5756 5754 5753 5751 5750 5748 5747 5745 5744 5742 5741 5740 5739 5737 5736 5735 5734 5733 5732 5731 5730 5729 5728 5727 5726 5725 5725 5724 5723 5722 5722 5721 5720 5719 5719 5718 5718 5717
5765 5760 5757 5755 5754 5753 5751 5749 5748 5746 5745 5743 5741 5740 5739 5737 5736 5735 5733 5732 5731 5730 5729 5728 5727 5726 5725 5724 5723 5722 5721 5720 5720 5719 5718 5717 5716 5716 5715 5714 5713 5712 5712
5763 5757 5754 5752 5750 5749 5747 5746 5744 5742 5741 5739 5737 5736 5735 5733 5732 5730 5729 5728 5727 5725 5724 5723 5722 5721 5720 5719 5718 5717 5717 5716 5716 5715 5714 5713 5711 5711 5710 5709 5708 5708 5707
5759 5754 5751 5748 5747 5745 5743 5742 5740 5738 5736 5735 5733 5732 5730 5729 5727 5726 5725 5723 5722 5721 5719 5718 5717 5716 5715 5714 5713 5713 5712 5712 5711 5711 5710 5708 5707 5706 5705 5704 5703 5703 5702
5754 5750 5746 5744 5743 5741 5739 5738 5736 5734 5732 5730 5729 5727 5725 5724 5722 5721 5720 5718 5717 5716 5714 5713 5712 5710 5710 5709 5709 5708 5708 5707 5707 5706 5704 5703 5702 5701 5700 5699 5698 5698 5697
5749 5745 5741 5740 5738 5737 5735 5733 5731 5729 5727 5726 5724 5722 5721 5719 5718 5716 5715 5713 5712 5711 5709 5708 5707 5706 5705 5704 5704 5703 5703 5703 5702 5701 5699 5698 5697 5696 5696 5695 5694 5693 5692
5744 5740 5736 5734 5733 5732 5730 5728 5726 5724 5722 5721 5719 5717 5716 5714 5712 5711 5710 5708 5707 5706 5704 5703 5702 5701 5700 5699 5699 5698 5698 5698 5697 5696 5694 5693 5692 5691 5691 5690 5689 5688 5687
5739 5734 5730 5729 5728 5726 5724 5722 5720 5719 5717 5716 5714 5712 5710 5709 5707 5706 5704 5703 5702 5700 5699 5698 5697 5696 5695 5694 5694 5693 5693 5693 5692 5690 5689 5688 5687 5686 5685 5684 5683 5683 5682
5733 5729 5725 5723 5721 5720 5718 5717 5715 5713 5712 5710 5708 5707 5705 5704 5702 5700 5699 5697 5696 5695 5694 5692 5691 5690 5690 5689 5689 5688 5688 5687 5686 5685 5683 5682 5682 5681 5680 5679 5678 5677 5676
5726 5724 5721 5718 5716 5714 5712 5711 5709 5707 5706 5704 5703 5701 5699 5698 5697 5695 5693 5692 5691 5689 5688 5687 5686 5685 5685 5684 5684 5683 5683 5682 5680 5679 5677 5676 5675 5675 5674 5673 5672 5671 5670
5718 5718 5716 5714 5711 5709 5707 5704 5703 5702 5700 5699 5697 5696 5694 5693 5691 5690 5688 5687 5685 5684 5683 5682 5681 5680 5680 5679 5679 5679 5677 5676 5675 5673 5671 5670 5669 5669 5667 5666 5665 5664 5663
5710 5711 5710 5709 5706 5704 5702 5699 5697 5696 5695 5694 5692 5691 5690 5688 5686 5684 5683 5682 5680 5679 5678 5677 5676 5675 5675 5674 5674 5673 5672 5671 5669 5667 5665 5664 5663 5662 5661 5659 5658 5657 5656
5705 5705 5704 5703 5701 5699 5697 5695 5693 5691 5690 5689 5687 5686 5684 5683 5681 5679 5678 5676 5675 5674 5673 5672 5671 5670 5670 5669 5669 5668 5666 5665 5663 5661 5659 5658 5656 5655 5654 5652 5651 5650 5649
5698 5698 5697 5697 5695 5694 5692 5690 5688 5686 5685 5684 5682 5681 5679 5677 5676 5674 5673 5671 5670 5669 5668 5667 5666 5665 5665 5664 5663 5662 5660 5659 5657 5655 5653 5651 5650 5648 5647 5645 5644 5643 5642
5692 5691 5691 5691 5689 5688 5686 5685 5683 5681 5679 5678 5677 5675 5674 5672 5670 5669 5667 5666 5665 5664 5663 5662 5661 5660 5659 5658 5657 5656 5654 5653 5651 5649 5646 5644 5643 5641 5639 5638 5636 5635 5634
5686 5685 5685 5684 5683 5682 5681 5679 5678 5675 5674 5672 5670 5669 5668 5666 5665 5663 5661 5660 5659 5658 5657 5656 5655 5653 5652 5651 5650 5649 5648 5646 5644 5642 5640 5637 5635 5634 5632 5630 5629 5627 5626
5681 5680 5679 5678 5677 5675 5674 5673 5671 5669 5667 5666 5664 5663 5662 5660 5658 5657 5655 5654 5653 5652 5651 5650 5648 5647 5646 5644 5643 5642 5641 5639 5638 5635 5633 5630 5628 5626 5624 5622 5620 5619 5617
5676 5674 5673 5672 5669 5668 5667 5666 5665 5663 5661 5659 5658 5656 5655 5654 5652 5651 5649 5647 5647 5646 5644 5643 5641 5639 5638 5637 5636 5635 5634 5633 5631 5629 5626 5623 5621 5618 5616 5614 5612 5610 5608
5670 5669 5666 5664 5663 5661 5660 5659 5658 5656 5655 5653 5651 5650 5648 5647 5646 5645 5643 5641 5640 5639 5637 5636 5634 5632 5630 5629 5628 5628 5627 5626 5625 5622 5619 5616 5614 5611 5608 5606 5603 5601 5598
5664 5662 5660 5657 5656 5655 5653 5652 5650 5649 5647 5646 5644 5643 5641 5640 5639 5638 5636 5635 5633 5631 5630 5628 5626 5624 5622 5621 5622 5621 5620 5619 5618 5615 5612 5609 5606 5603 5600 5597 5594 5592 5589
5656 5654 5653 5651 5649 5648 5646 5644 5642 5640 5639 5638 5637 5636 5634 5633 5632 5631 5629 5627 5626 5624 5622 5620 5618 5616 5613 5613 5612 5611 5613 5613 5611 5607 5604 5601 5598 5595 5591 5588 5586 5583 5580
5647 5647 5646 5644 5643 5642 5640 5639 5636 5634 5632 5631 5630 5629 5627 5626 5625 5623 5621 5620 5618 5616 5614 5612 5610 5606 5604 5603 5600 5598 5598 5600 5601 5599 5595 5592 5589 5586 5583 5580 5577 5574 5571
5639 5639 5640 5639 5637 5636 5634 5632 5629 5627 5625 5623 5622 5621 5620 5619 5617 5616 5614 5613 5611 5609 5606 5604 5601 5598 5594 5593 5591 5587 5583 5582 5585 5588 5586 5583 5580 5577 5574 5571 5568 5565 5562
5631 5632 5632 5631 5630 5629 5628 5626 5624 5621 5618 5617 5616 5614 5613 5612 5610 5609 5607 5605 5603 5601 5598 5596 5593 5590 5587 5583 5582 5579 5575 5571 5568 5571 5575 5573 5570 5567 5564 5562 5558 5555 5552
5624 5624 5624 5624 5623 5622 5621 5620 5618 5615 5614 5612 5610 5608 5606 5605 5603 5602 5600 5598 5596 5593 5591 5588 5585 5582 5579 5575 5571 5569 5566 5562 5559 5556 5559 5562 5560 5557 5554 5551 5548 5545 5542
5615 5615 5615 5616 5615 5615 5614 5613 5612 5610 5607 5605 5603 5600 5599 5597 5595 5594 5592 5590 5588 5585 5583 5580 5577 5574 5571 5567 5563 5559 5556 5552 5548 5545 5544 5546 5547 5548 5545 5541 5538 5534 5531